This demonstration page uses our WeatherBlox Daily Observations layout. Learn more.

Left ArrowRight Arrow

41.55636, -103.73856

Hourly Observations for May 24, 2020

Temp ( °F °C ) Dew Point ( °F °C ) Humidity (%) Winds ( mph kmh ) Pressure ( in mb ) Visibility ( mi km ) Precip ( " mm )
12:58 am 00:58 Mostly Cloudy 55 12.6 48 8.9 78 78 ENE 7 11 29.75 1007 10 16 0.01 0.25
1:58 am 01:58 Mostly Cloudy 54 12.4 47 8.5 77 77 N 13 20 29.76 1008 10 16 N/A
2:58 am 02:58 Mostly Cloudy 53 11.9 47 8.2 78 78 NNW 16 26 29.79 1009 10 16 N/A
3:58 am 03:58 Mostly Cloudy 52 11.2 47 8.6 84 84 NNW 21 33 29.82 1010 10 16 N/A
4:58 am 04:58 Mostly Cloudy 53 11.6 46 7.6 77 77 N 22 35 29.78 1009 10 16 N/A
5:58 am 05:58 Cloudy with Light Rain 51 10.7 46 7.8 82 82 NW 13 20 29.85 1011 10 16 N/A
6:58 am 06:58 Mostly Cloudy with Light Showers 51 10.4 46 7.8 84 84 N 10 17 29.84 1011 10 16 N/A
7:58 am 07:58 Cloudy 50 10 46 7.8 86 86 NNW 13 20 29.85 1011 10 16 N/A
8:58 am 08:58 Cloudy 48 8.7 44 6.5 86 86 NNW 15 24 29.86 1011 10 16 N/A
9:58 am 09:58 Mostly Cloudy 45 7.1 42 5.5 90 90 NW 12 19 29.91 1013 10 16 N/A
10:58 am 10:58 Mostly Cloudy 44 6.7 42 5.4 92 92 NW 15 24 29.90 1013 10 16 N/A
11:58 am 11:58 Mostly Sunny 42 5.7 40 4.2 90 90 W 10 17 29.96 1015 10 16 N/A
12:59 pm 12:59 Mostly Sunny 44 6.8 40 4.5 85 85 NW 15 24 29.98 1015 10 16 N/A
1:58 pm 13:58 Partly Cloudy 47 8.1 39 4 76 76 NW 16 26 30.00 1016 10 16 N/A
2:58 pm 14:58 Mostly Cloudy 49 9.6 39 3.7 67 67 NNW 17 28 29.98 1015 10 16 N/A
3:58 pm 15:58 Mostly Sunny 51 10.8 37 3 59 59 NNW 21 33 29.99 1016 10 16 N/A
4:58 pm 16:58 Mostly Cloudy 53 11.8 39 4.1 60 60 NNW 16 26 29.98 1015 10 16 N/A
5:58 pm 17:58 Mostly Cloudy 56 13.2 37 3 50 50 NNW 17 28 29.98 1015 10 16 N/A
6:58 pm 18:58 Mostly Cloudy with Light Rain 53 11.4 42 5.4 67 67 NNW 18 30 29.99 1016 10 16 0.01 0.25
7:58 pm 19:58 Mostly Cloudy 55 12.7 39 3.9 55 55 N 10 17 29.98 1015 10 16 N/A
8:58 pm 20:58 Mostly Cloudy 56 13.4 37 3 50 50 NW 15 24 29.98 1015 10 16 N/A
9:58 pm 21:58 Cloudy with Light Rain 51 10.8 41 5 68 68 NW 20 31 30.00 1016 10 16 N/A
10:58 pm 22:58 Cloudy with Light Rain 48 9 42 5.6 79 79 N 6 9 30.01 1016 10 16 0.05 1.27
11:58 pm 23:58 Cloudy 48 9 44 6.9 87 87 SSW 8 13 30.03 1017 10 16 N/A

Powered by AerisWeather